Casement, Ireland

12:08 PM IST on May 29, 2017 (GMT +0100)
Casement Air Base

Weather History for EIME - February, 2014

Change the Weather History Date:

Friday, February 14, 2014

  Actual Average (EIDW) Record (EIDW)
Temperature  
Mean Temperature 42 °F -  
Max Temperature 48 °F 46 °F 59 °F (1998)
Min Temperature 37 °F 35 °F 24 °F (2001)
Degree Days  
Heating Degree Days 22    
Moisture  
Dew Point 39 °F    
Average Humidity 87    
Maximum Humidity 100    
Minimum Humidity 63    
Precipitation  
Precipitation 0.47 in - - ()
Sea Level Pressure  
Sea Level Pressure 28.77 in    
Wind  
Wind Speed 14 mph ()    
Max Wind Speed 36 mph    
Max Gust Speed 51 mph    
Visibility 7.8 miles    
Events Rain    
Averages and records for this station are not official NWS values.
T = Trace of Precipitation, MM = Missing Value Source: Averaged Metar Reports

Daily Weather History Graph

Daily Weather History Graph

Search for Another Location

Airport or City:

Trip Planner

Search our weather history database for the weather conditions in past years. The results will help you decide how hot, cold, wet, or windy it might be!

Date:

Astronomy

Feb. 14, 2014 Rise Set
Actual Time 7:46 AM GMT 5:34 PM GMT
Civil Twilight 7:09 AM GMT 6:10 PM GMT
Nautical Twilight 6:29 AM GMT 6:51 PM GMT
Astronomical Twilight 5:49 AM GMT 7:31 PM GMT
Moon 5:31 PM GMT (2/14) 7:02 AM GMT (2/14)
Length of Visible Light 11h 00m
Length of Day
9h 48m
Full, 100% of the Moon is Illuminated
Feb 14
Full
Feb 14
Full
Feb 22
Last Quarter
Mar 1
New
Mar 8
First Quarter

Hourly Weather History & Observations

Time (GMT) Temp. Windchill Dew Point Humidity Pressure Visibility Wind Dir Wind Speed Gust Speed Precip Events Conditions
12:00 AM 38 °F - 35 °F 83% 29.32 in 12 mi SW 15.7 mph - -   Partly Cloudy
12:00 AM 37.4 °F 28.2 °F 35.6 °F 93% 29.30 in 6.2 mi SW 16.1 mph - N/A   Mostly Cloudy
1:00 AM 38 °F - 35 °F 84% 29.33 in 12 mi SSW 15.7 mph - -   Mostly Cloudy
1:00 AM 37.4 °F 28.5 °F 35.6 °F 93% 29.30 in 6.2 mi SSW 15.0 mph - N/A   Mostly Cloudy
2:00 AM 38 °F - 34 °F 81% 29.32 in 12 mi SSW 11.2 mph - -   Mostly Cloudy
2:00 AM 39.2 °F 32.0 °F 33.8 °F 81% 29.30 in 6.2 mi SSW 11.5 mph - N/A   Mostly Cloudy
3:00 AM 39 °F - 34 °F 76% 29.30 in 12 mi SSW 13.4 mph - -   Clear
3:00 AM 39.2 °F 31.6 °F 33.8 °F 81% 29.27 in 6.2 mi SSW 12.7 mph - N/A   Unknown
4:00 AM 38 °F - 33 °F 77% 29.27 in 12 mi South 11.2 mph - -   Mostly Cloudy
4:00 AM 39.2 °F 32.5 °F 33.8 °F 81% 29.24 in 6.2 mi South 10.4 mph - N/A   Unknown
5:00 AM 39 °F - 33 °F 72% 29.25 in 12 mi South 11.2 mph - -   Mostly Cloudy
5:00 AM 39.2 °F 32.5 °F 33.8 °F 81% 29.24 in 6.2 mi South 10.4 mph - N/A   Unknown
6:00 AM 40 °F - 32 °F 63% 29.22 in 12 mi East 4.5 mph - -   Mostly Cloudy
6:00 AM 39.2 °F 35.9 °F 32.0 °F 75% 29.21 in 6.2 mi East 4.6 mph - N/A   Unknown
7:00 AM 39 °F - 33 °F 71% 29.17 in 12 mi East 6.7 mph - -   Partly Cloudy
7:00 AM 39.2 °F 34.2 °F 33.8 °F 81% 29.15 in 6.2 mi East 6.9 mph - N/A   Mostly Cloudy
8:00 AM 38 °F - 35 °F 86% 29.10 in 12 mi ENE 6.7 mph - - Rain Light Rain
8:00 AM 39.2 °F 34.2 °F 35.6 °F 87% 29.09 in 6.2 mi ENE 6.9 mph - N/A   Mostly Cloudy
8:30 AM 41.0 °F 32.5 °F 35.6 °F 81% 29.03 in 6.2 mi ESE 17.3 mph - N/A Rain Light Rain
9:00 AM 40 °F - 34 °F 73% 29.03 in 9 mi ESE 24.6 mph - - Rain Light Rain
9:00 AM 39.2 °F 28.3 °F 33.8 °F 81% 29.00 in 6.2 mi ESE 25.3 mph - N/A Rain Light Rain
9:30 AM 39.2 °F 29.3 °F 35.6 °F 87% 28.94 in 6.2 mi East 20.7 mph 39.1 mph N/A Rain Light Rain
10:00 AM 39 °F - 36 °F 86% 28.92 in 6 mi East 22.4 mph - - Rain Light Rain
10:00 AM 39.2 °F 29.0 °F 35.6 °F 87% 28.88 in 6.2 mi East 21.9 mph 33.4 mph N/A Rain Light Rain
10:30 AM 39.2 °F 28.0 °F 35.6 °F 87% 28.82 in 5.6 mi East 26.5 mph 38.0 mph N/A Rain Light Rain
11:00 AM 38 °F - 36 °F 91% 28.77 in 5 mi East 35.8 mph - - Rain Light Rain
11:00 AM 39.2 °F 26.5 °F 35.6 °F 87% 28.74 in 5.0 mi East 35.7 mph 50.6 mph N/A Rain Light Rain
11:30 AM 39.2 °F 27.4 °F 37.4 °F 93% 28.71 in 3.7 mi East 29.9 mph 49.5 mph N/A Rain Light Rain
12:00 PM 39 °F - 38 °F 92% 28.69 in 2 mi East 29.1 mph - - Rain Light Rain
12:00 PM 39.2 °F 27.4 °F 37.4 °F 93% 28.68 in 2.5 mi East 29.9 mph - N/A Rain Light Rain
12:30 PM 39.2 °F 28.5 °F 37.4 °F 93% 28.65 in 2.5 mi East 24.2 mph 35.7 mph N/A Rain Light Rain
1:00 PM 41 °F - 39 °F 89% 28.60 in 7 mi ESE 24.6 mph - - Rain Light Rain
1:00 PM 41.0 °F 30.7 °F 39.2 °F 93% 28.59 in 6.2 mi ESE 25.3 mph - N/A Rain Light Rain
1:30 PM 46.4 °F 37.9 °F 42.8 °F 87% 28.53 in 6.2 mi SE 25.3 mph - N/A   Partly Cloudy
2:00 PM 47 °F - 44 °F 83% 28.51 in 9 mi SSE 20.1 mph - - Rain Light Rain
2:30 PM 48.2 °F - 44.6 °F 87% 28.47 in 6.2 mi SSE 17.3 mph - N/A Rain Light Rain Showers
3:00 PM 47 °F - 44 °F 86% 28.45 in 16 mi SSE 13.4 mph - - Rain Light Rain Showers
3:00 PM 48.2 °F - 44.6 °F 87% 28.44 in 6.2 mi SSE 10.4 mph - N/A Rain Light Rain Showers
3:30 PM 46.4 °F 38.7 °F 44.6 °F 93% 28.44 in 6.2 mi South 20.7 mph - N/A Rain Rain
4:00 PM 47 °F - 44 °F 83% 28.42 in 3 mi South 20.1 mph - - Rain Rain
4:00 PM 46.4 °F 39.0 °F 42.8 °F 87% 28.41 in 3.1 mi South 19.6 mph - N/A Rain Rain
4:30 PM 44.6 °F 38.8 °F 42.8 °F 93% 28.38 in 6.2 mi South 11.5 mph - N/A Rain Light Rain
5:00 PM 45 °F - 43 °F 88% 28.37 in 9 mi SE 6.7 mph - - Rain Light Rain
5:00 PM 44.6 °F 40.7 °F 42.8 °F 93% 28.35 in 6.2 mi SE 6.9 mph 28.8 mph N/A Rain Light Rain
6:00 PM 46 °F - 43 °F 85% 28.33 in 11 mi South 13.4 mph - - Rain Light Rain
6:00 PM 46.4 °F 40.7 °F 42.8 °F 87% 28.32 in 6.2 mi South 12.7 mph - N/A Rain Light Rain
7:00 PM 44 °F - 42 °F 89% 28.32 in 11 mi SSW 6.7 mph - - Rain Light Rain
7:00 PM 44.6 °F 41.4 °F 42.8 °F 93% 28.29 in 6.2 mi SSW 5.8 mph - N/A   Scattered Clouds
8:00 PM 44 °F - 43 °F 95% 28.32 in 19 mi SSW 8.9 mph - -   Mostly Cloudy
8:00 PM 44.6 °F 39.7 °F 42.8 °F 93% 28.29 in 6.2 mi SSW 9.2 mph - N/A   Scattered Clouds
9:00 PM 44 °F - 43 °F 97% 28.32 in 19 mi SW 11.2 mph - -   Partly Cloudy
9:00 PM 44.6 °F 38.8 °F 42.8 °F 93% 28.29 in 6.2 mi SW 11.5 mph - N/A   Scattered Clouds
10:00 PM 45 °F - 44 °F 95% 28.33 in 12 mi SW 13.4 mph - -   Mostly Cloudy
10:00 PM 44.6 °F 38.4 °F 44.6 °F 100% 28.32 in 6.2 mi SW 12.7 mph - N/A   Mostly Cloudy
11:00 PM 45 °F - 44 °F 92% 28.35 in 7 mi WSW 13.4 mph - -   Mist
11:00 PM 44.6 °F 38.4 °F 44.6 °F 100% 28.32 in 6.2 mi WSW 12.7 mph - N/A   Mostly Cloudy